Regional Weather Roundup
Issued by NWS Little Rock, AR

Home | Current Version | Previous Version | Text Only | Print | Product List | Glossary On
Versions: 1 2 3 4 5 6 7 8 9 10 11 12 13 14 15 16 17 18 19 20 21 22 23 24 25 26 27 28 29 30 31 32 33 34 35 36 37 38 39 40 41 42 43 44 45 46 47 48 49 50
000
ASUS44 KLZK 031005
RWRLZK

WEATHER ROUNDUP FOR ARKANSAS
NATIONAL WEATHER SERVICE LITTLE ROCK AR
500 AM CDT SUN MAY 03 2015

NOTE: "FAIR" INDICATES FEW OR NO CLOUDS BELOW 12,000 FEET WITH NO
SIGNIFICANT WEATHER AND/OR OBSTRUCTIONS TO VISIBILITY.

ARZ001-003-010-029-031100-
NORTHWEST ARKANSAS

CITY           SKY/WX    TMP DP  RH WIND       PRES   REMARKS
FAYETTEVILLE   CLEAR     53  50  89 CALM      30.00S
FORT SMITH     CLEAR     58  52  80 NE5       29.99R
HARRISON       CLEAR     51  48  89 SE6       30.01F
BENTONVILLE    CLEAR    N/A N/A N/A S6        29.98F
ROGERS         CLEAR     58  50  75 SE8       29.99F
SILOAM SPGS    CLEAR     61  46  59 S8        29.99S
HIGHFILL       CLEAR     56  49  77 S3        29.98S
$$

ARZ004-005-016-031100-
NORTH CENTRAL ARKANSAS

CITY           SKY/WX    TMP DP  RH WIND       PRES   REMARKS
BATESVILLE     CLEAR     57  43  58 CALM      30.03F
FLIPPIN        CLEAR     55  45  67 S3        30.00S
MTN HOME       CLEAR     57  44  62 S5        30.01S
$$

ARZ040-041-031100-
WEST CENTRAL ARKANSAS

CITY           SKY/WX    TMP DP  RH WIND       PRES   REMARKS
MENA           CLEAR     52  50  93 CALM      30.03S
MOUNT IDA      CLEAR     51  48  89 CALM      30.01R
$$

ARZ009-017-025-026-028-031100-
NORTHEAST ARKANSAS

CITY           SKY/WX    TMP DP  RH WIND       PRES   REMARKS
CORNING          N/A     55  48  76 CALM      30.04F
JONESBORO      PTCLDY    48  47  96 CALM      30.04S
NEWPORT        CLEAR     54  49  83 CALM      30.05S
WALNUT RIDGE   PTCLDY    57  45  62 CALM      30.04R
BLYTHEVILLE    PTCLDY    56  49  77 S3        30.06R
$$

ARZ022-023-033-042-044-031100-
CENTRAL ARKANSAS

CITY           SKY/WX    TMP DP  RH WIND       PRES   REMARKS
LITTLE ROCK    CLEAR     55  48  77 CALM      30.04S
N LITTLE ROCK    N/A     60  46  61 SW6       30.04
JACKSONVILLE   CLEAR     49  47  94 CALM      30.04R
SEARCY         CLEAR     50  48  93 CALM      30.06R
HOT SPRINGS    CLEAR     56  45  66 NE3       30.04R
RUSSELLVILLE   CLEAR     52  50  93 CALM      30.02R
CLINTON        FAIR      46  46 100 CALM      30.06S FOG
$$

ARZ036-031100-
EAST ARKANSAS

CITY           SKY/WX    TMP DP  RH WIND       PRES   REMARKS
WEST MEMPHIS   CLEAR     54  51  90 S3        30.05R
$$

ARZ050-053-066-070-073-031100-
SOUTHWEST ARKANSAS

CITY           SKY/WX    TMP DP  RH WIND       PRES   REMARKS
ARKADELPHIA    FAIR      55  55 100 CALM      30.04R
CAMDEN         PTCLDY    54  50  87 CALM      30.03S
TEXARKANA      CLEAR     64  54  69 S9        30.01R
EL DORADO      CLEAR     55  51  86 CALM      30.03R
DE QUEEN       CLEAR     54  53  97 CALM      29.99R
$$

ARZ056-057-069-031100-
SOUTHEAST ARKANSAS

CITY           SKY/WX    TMP DP  RH WIND       PRES   REMARKS
PINE BLUFF     MOCLDY    54  52  93 CALM      30.05R
STUTTGART      CLEAR     57  48  72 SE5       30.05S
MONTICELLO     MOCLDY    62  43  49 S5        30.04R

$$




USA.gov is the U.S. government's official web portal to all federal, state and local government web resources and services.